[[{"header":{"parameterUnit":"m.s-1","parameterCategory":1,"la1":30.2991,"la2":30.254,"lo1":-89.0895,"lo2":-89.0444,"dy":0.0017,"dx":0.0017,"nx":28,"ny":28,"refTime":"2024-06-02T21:00:00:Z","depth":0,"parameterNumber":2,"parameterNumberName":"U-component_of_WINDS"},"data":[0,0,0,0,0,0,0,0,0,0,0,0,0,0,0,0,0,0,0,0,0,0,0,0,0,0,0,0,0,0,0,0,0,0,0,0,0,0,0,0,0,0,0,0,0,0,0,0,0,0,0,0,0,0,0,0,0,0,-0.9732,-0.9731,0,-0.9705,-0.9705,-0.9705,-0.9667,-0.9666,-0.9666,-0.9665,-0.9639,-0.9639,-0.9639,0,0,0,0,0,0,0,0,0,0,0,0,0,-0.9751,-0.975,-0.9732,-0.9731,-0.9731,-0.9706,-0.9705,-0.9705,-0.9667,-0.9666,-0.9665,-0.9665,-0.9639,-0.9639,-0.9639,0,0,0,0,0,0,0,0,0,0,0,0,0,-0.9735,-0.975,-0.9732,-0.9709,-0.9707,-0.9706,-0.9705,-0.9705,-0.9667,-0.9666,-0.9665,-0.9664,-0.9639,-0.9639,-0.9639,-0.9658,0,0,-0.9639,-0.9638,0,0,0,0,0,0,0,0,-0.9736,-0.9735,-0.9713,-0.9711,-0.9708,-0.9688,-0.9702,-0.9689,-0.9667,-0.9682,-0.9665,-0.9664,-0.9656,-0.9655,-0.9652,-0.9657,-0.9656,-0.9639,-0.9638,-0.9638,-0.9638,0,0,0,0,0,0,0,-0.9737,-0.9736,-0.9721,-0.9712,-0.971,-0.9701,-0.9697,-0.97,-0.9675,-0.9681,-0.9678,-0.9675,-0.9655,-0.9652,-0.9651,-0.9655,-0.9639,-0.9638,-0.9638,-0.9638,-0.9675,-0.9676,0,0,0,0,0,0,-0.9742,-0.9737,-0.9722,-0.9721,-0.972,-0.9701,-0.9698,-0.9696,-0.9675,-0.9671,-0.9676,-0.9674,-0.9653,-0.9651,-0.965,-0.9671,-0.9638,-0.9638,-0.9638,-0.9674,-0.9676,-0.9677,0,0,0,0,0,0,-0.9742,-0.9741,-0.9723,-0.9728,-0.9725,-0.9702,-0.97,-0.9696,-0.9693,-0.9672,-0.9667,-0.9678,-0.9652,-0.965,-0.9656,-0.967,-0.9638,-0.9638,-0.9673,-0.9675,-0.9676,-0.9714,0,0,0,0,0,0,-0.9743,-0.9741,-0.9748,-0.9728,-0.9725,-0.973,-0.9701,-0.9696,-0.9693,-0.9689,-0.9672,-0.9668,-0.9651,-0.9657,-0.9656,-0.9669,-0.9638,-0.9672,-0.9674,-0.9676,-0.9712,-0.9717,-0.9721,0,0,0,0,0,-0.9744,-0.9759,-0.9748,-0.9747,-0.9733,-0.973,-0.9729,-0.9708,-0.9694,-0.9701,-0.9687,-0.9669,-0.9669,-0.9658,-0.9657,-0.967,-0.9671,-0.9673,-0.9676,-0.9709,-0.9716,-0.9721,0,0,0,0,0,0,-0.9781,-0.9756,-0.9744,-0.9754,-0.9744,-0.9724,-0.9732,-0.9716,-0.9711,-0.9707,-0.9683,-0.9679,-0.9689,-0.968,-0.9668,-0.9688,-0.9667,-0.9669,-0.9693,-0.9699,-0.9704,-0.9706,-0.9638,0,0,0,0,0,-0.9791,-0.979,-0.9769,-0.978,-0.9776,-0.9755,-0.9753,-0.9739,-0.9728,-0.9724,-0.9711,-0.9702,-0.97,-0.9699,-0.9696,-0.9711,-0.9706,-0.9719,-0.9724,-0.9728,-0.973,-0.9738,-0.9743,-0.9685,-0.9685,-0.9685,0,0,-0.981,-0.9796,-0.9798,-0.9787,-0.9778,-0.9779,-0.9752,-0.9754,-0.9754,-0.9724,-0.9729,-0.972,-0.9708,-0.9719,-0.9723,-0.9712,-0.9746,-0.9731,-0.9735,-0.9734,-0.9741,-0.9747,-0.9751,-0.9686,-0.9686,-0.9686,0,0,-0.9846,-0.9835,-0.9843,-0.9835,-0.9822,-0.9808,-0.981,-0.9793,-0.9785,-0.979,-0.9767,-0.9768,-0.9765,-0.9758,-0.9754,-0.9788,-0.9771,-0.9788,-0.9813,-0.9821,-0.9826,-0.983,-0.9842,-0.9847,-0.979,-0.9791,-0.9791,0,-0.9871,-0.9871,-0.985,-0.9853,-0.985,-0.9823,-0.9831,-0.9824,-0.9811,-0.9809,-0.9797,-0.9793,-0.9784,-0.9792,-0.9801,-0.9799,-0.9801,-0.979,-0.9827,-0.983,-0.9834,-0.9845,-0.985,-0.9793,-0.9792,-0.9792,-0.9792,0,-0.9904,-0.9905,-0.9913,-0.9901,-0.9898,-0.9904,-0.9884,-0.9884,-0.987,-0.9857,-0.9863,-0.985,-0.9845,-0.9846,-0.9832,-0.9853,-0.9847,-0.9831,-0.9809,-0.9842,-0.9852,-0.9857,-0.9796,-0.9795,-0.9794,-0.9794,0,0,-0.9962,-0.9938,-0.9941,-0.9936,-0.992,-0.992,-0.9926,-0.992,-0.992,-0.9913,-0.9917,-0.9915,-0.9901,-0.9897,-0.9882,-0.9889,-0.9917,-0.9872,-0.9872,-0.9881,-0.994,-0.9952,-0.9957,-0.9906,-0.9907,-0.9908,-0.9941,0,-0.9994,-1.0001,-0.9982,-0.9994,-0.9995,-0.997,-0.9974,-0.9966,-0.9955,-0.9954,-0.9942,-0.9941,-0.9922,-0.992,-0.9925,-0.9913,-0.9929,-0.991,-0.991,-0.991,-0.9913,-0.9962,-0.9974,-1.0006,-0.9945,-0.9946,-0.9946,0,-1.0033,-1.0027,-1.0039,-1.0023,-1.0023,-1.0027,-1.0021,-1.002,-1.001,-1.0002,-0.9997,-0.998,-0.9985,-0.9965,-0.9972,-0.9959,-0.9958,-0.9952,-0.9953,-0.9952,-0.993,-0.9962,-1.0016,-1.0021,-0.9952,-0.9952,-0.9951,0,-1.0074,-1.0069,-1.0076,-1.0072,-1.0053,-1.0057,-1.005,-1.0039,-1.0037,-1.0031,-1.003,-1.0025,-1.0023,-1.002,-1.0003,-0.999,-1.0012,-0.999,-1.0005,-1.0006,-1.001,-1.001,-1.0064,-1.001,-1.001,-1.001,-1.001,0,-1.0112,-1.0121,-1.0094,-1.0098,-1.0107,-1.0086,-1.0095,-1.0085,-1.0076,-1.0078,-1.0057,-1.0059,-1.0036,-1.0037,-1.0024,-1.0031,-1.003,-1.0024,-1.002,-1.0026,-1.0026,-1.0024,-1.0022,-1.0011,-1.0011,-1.0011,-1.0011,0,-1.0159,-1.0142,-1.0147,-1.013,-1.0125,-1.0133,-1.0118,-1.0121,-1.0109,-1.0112,-1.0112,-1.0093,-1.0092,-1.0075,-1.0071,-1.0062,-1.0075,-1.0067,-1.0078,-1.0076,-1.0092,-1.0091,-1.0146,-1.0153,-1.0095,-1.0096,-1.0096,0,-1.0185,-1.019,-1.0173,-1.0173,-1.0167,-1.0167,-1.0164,-1.0144,-1.0143,-1.0132,-1.0137,-1.0135,-1.0132,-1.0132,-1.0118,-1.0115,-1.0107,-1.0127,-1.0107,-1.0112,-1.0108,-1.0108,-1.0108,-1.0131,-1.0132,-1.0133,-1.0133,0,-1.0232,-1.0223,-1.022,-1.0215,-1.0213,-1.0208,-1.0201,-1.0203,-1.018,-1.018,-1.0179,-1.0177,-1.0173,-1.0171,-1.0166,-1.0159,-1.0143,-1.014,-1.0143,-1.0149,-1.0155,-1.0152,-1.009,-1.0139,-1.0138,-1.0138,-1.0137,-1.0137,-1.0268,-1.0273,-1.0261,-1.0259,-1.0252,-1.0247,-1.025,-1.0238,-1.0236,-1.0231,-1.022,-1.0221,-1.0211,-1.0202,-1.0197,-1.0198,-1.0188,-1.0193,-1.0194,-1.0195,-1.0198,-1.0155,-1.0197,-1.0197,-1.0196,-1.0196,-1.0196,0,-1.0314,-1.0306,-1.0304,-1.0296,-1.0295,-1.028,-1.0272,-1.0272,-1.0273,-1.0265,-1.0263,-1.0262,-1.0261,-1.0247,-1.0244,-1.0248,-1.024,-1.0247,-1.0247,-1.0246,-1.0207,-1.0205,-1.0254,-1.0254,-1.0254,-1.0254,-1.0253,-1.0253,-1.0338,-1.0344,-1.0334,-1.0337,-1.0329,-1.0329,-1.0327,-1.0322,-1.0316,-1.0316,-1.0314,-1.0305,-1.0295,-1.0292,-1.029,-1.0286,-1.0286,-1.0296,-1.0289,-1.0254,-1.0248,-1.0243,-1.024,-1.0296,-1.0296,-1.0327,-1.0328,-1.0328]},{"header":{"parameterUnit":"m.s-1","parameterCategory":1,"la1":30.2991,"la2":30.254,"lo1":-89.0895,"lo2":-89.0444,"dy":0.0017,"dx":0.0017,"nx":28,"ny":28,"refTime":"2024-06-02T21:00:00:Z","depth":0,"parameterNumber":3,"parameterNumberName":"V-component_of_WINDS"},"data":[0,0,0,0,0,0,0,0,0,0,0,0,0,0,0,0,0,0,0,0,0,0,0,0,0,0,0,0,0,0,0,0,0,0,0,0,0,0,0,0,0,0,0,0,0,0,0,0,0,0,0,0,0,0,0,0,0,0,3.9745,3.9745,0,3.9716,3.9715,3.9715,3.9738,3.9739,3.974,3.974,3.9706,3.9704,3.9702,0,0,0,0,0,0,0,0,0,0,0,0,0,3.9818,3.9817,3.9745,3.9745,3.9745,3.9716,3.9715,3.9715,3.9737,3.9739,3.974,3.9741,3.9706,3.9704,3.9702,0,0,0,0,0,0,0,0,0,0,0,0,0,3.9787,3.9816,3.9745,3.9752,3.9753,3.9716,3.9715,3.9715,3.9737,3.9739,3.974,3.9741,3.9707,3.9704,3.9701,3.9655,0,0,3.9693,3.9692,0,0,0,0,0,0,0,0,3.9789,3.9784,3.9752,3.9752,3.9752,3.9732,3.9728,3.9695,3.9737,3.9743,3.9741,3.9742,3.9713,3.971,3.9701,3.9653,3.9652,3.9693,3.9691,3.969,3.9689,0,0,0,0,0,0,0,3.9791,3.9786,3.9734,3.9751,3.9752,3.9756,3.9753,3.9722,3.972,3.9743,3.9744,3.9741,3.9713,3.9703,3.97,3.9651,3.9693,3.969,3.9689,3.9688,3.9565,3.9563,0,0,0,0,0,0,3.9793,3.9787,3.9735,3.9733,3.9775,3.9754,3.975,3.9737,3.972,3.9719,3.9739,3.9742,3.9707,3.9703,3.9699,3.9644,3.969,3.9687,3.9686,3.9566,3.9564,3.9563,0,0,0,0,0,0,3.9794,3.9788,3.9736,3.9761,3.9754,3.9751,3.9735,3.9736,3.9726,3.9718,3.9717,3.973,3.9708,3.9703,3.9666,3.9643,3.9686,3.9684,3.9568,3.9566,3.9563,3.9532,0,0,0,0,0,0,3.9796,3.9788,3.9771,3.976,3.9753,3.9704,3.9734,3.9734,3.9721,3.9724,3.9709,3.9708,3.9709,3.967,3.9663,3.964,3.9681,3.957,3.9567,3.9564,3.9535,3.9529,3.9524,0,0,0,0,0,3.9799,3.9762,3.977,3.9764,3.9731,3.9703,3.9698,3.9702,3.9719,3.9702,3.9697,3.9708,3.9647,3.9666,3.9659,3.9634,3.9572,3.9568,3.9564,3.9538,3.953,3.9524,0,0,0,0,0,0,3.9768,3.9761,3.977,3.9728,3.9716,3.9707,3.9684,3.9694,3.9675,3.9678,3.9683,3.9679,3.9641,3.9634,3.9656,3.9588,3.9612,3.9607,3.9594,3.9587,3.9581,3.9583,3.9679,0,0,0,0,0,3.9757,3.9736,3.973,3.9694,3.9688,3.9687,3.9675,3.9679,3.9666,3.966,3.9653,3.9639,3.9617,3.9601,3.958,3.9535,3.9532,3.9514,3.9509,3.9504,3.9499,3.9475,3.9467,3.9551,3.9551,3.9551,0,0,3.9733,3.9727,3.9712,3.9688,3.9679,3.9656,3.9682,3.9656,3.9639,3.9656,3.9621,3.9616,3.96,3.9559,3.9541,3.9552,3.9475,3.9499,3.9496,3.9493,3.9471,3.9463,3.9456,3.9548,3.9549,3.9549,0,0,3.9678,3.9671,3.9641,3.9632,3.9619,3.9619,3.9612,3.9601,3.9599,3.9565,3.9577,3.9556,3.9517,3.9506,3.9495,3.9438,3.9448,3.9431,3.94,3.9377,3.9371,3.9365,3.9344,3.9337,3.9427,3.9426,3.9426,0,3.9649,3.9616,3.9623,3.9597,3.9586,3.9603,3.9572,3.9563,3.9543,3.9534,3.9548,3.9501,3.9492,3.9449,3.9435,3.9426,3.9418,3.9432,3.9371,3.9365,3.936,3.9341,3.9333,3.9425,3.9425,3.9425,3.9425,0,3.9581,3.9558,3.9535,3.9518,3.9505,3.9476,3.9479,3.9464,3.947,3.9469,3.9434,3.9424,3.9401,3.9392,3.9396,3.935,3.9357,3.9371,3.9394,3.935,3.9332,3.9325,3.9422,3.9422,3.9423,3.9423,0,0,3.9503,3.9493,3.9484,3.9477,3.9466,3.9447,3.942,3.94,3.9387,3.9373,3.935,3.9318,3.9332,3.9319,3.9323,3.9303,3.9259,3.9319,3.9319,3.9308,3.9207,3.9196,3.9188,3.9266,3.9264,3.9263,3.9208,0,3.9447,3.9401,3.9408,3.9363,3.9342,3.9359,3.9335,3.9325,3.9323,3.9304,3.9302,3.9279,3.9298,3.9291,3.9272,3.9268,3.9238,3.9272,3.9243,3.9242,3.9246,3.9178,3.9166,3.9115,3.9201,3.92,3.9199,0,3.9375,3.9362,3.9315,3.9308,3.9299,3.9278,3.9261,3.9243,3.9232,3.9232,3.922,3.9228,3.92,3.9225,3.9186,3.9209,3.9198,3.9195,3.9193,3.9189,3.9217,3.9172,3.9099,3.9091,3.9188,3.9189,3.919,0,3.9323,3.9293,3.9262,3.9255,3.9246,3.9231,3.9226,3.9216,3.9204,3.9189,3.9182,3.9163,3.9152,3.9137,3.914,3.9158,3.9101,3.9126,3.91,3.9099,3.9086,3.9086,3.9008,3.9079,3.9079,3.908,3.908,0,3.926,3.923,3.9238,3.9219,3.9187,3.9195,3.9163,3.916,3.9152,3.9132,3.9144,3.9125,3.913,3.9111,3.9112,3.908,3.9075,3.9074,3.9075,3.9073,3.9073,3.9065,3.9068,3.9077,3.9078,3.9078,3.9079,0,3.9195,3.92,3.9167,3.9162,3.916,3.9137,3.9132,3.9113,3.9114,3.9088,3.9083,3.9082,3.9061,3.9062,3.9037,3.9038,3.8999,3.9004,3.9003,3.9004,3.8977,3.898,3.8891,3.8879,3.8958,3.8957,3.8957,0,3.9154,3.9133,3.9126,3.9115,3.911,3.909,3.9079,3.9087,3.9074,3.9061,3.9044,3.9024,3.9008,3.8972,3.8969,3.895,3.8954,3.8924,3.8951,3.895,3.8953,3.8955,3.8953,3.8919,3.8918,3.8917,3.8916,0,3.908,3.9084,3.9068,3.9054,3.904,3.9028,3.9018,3.9007,3.9014,3.8999,3.8978,3.8966,3.8941,3.8921,3.8903,3.8897,3.8907,3.8908,3.8901,3.8898,3.8899,3.8898,3.8988,3.891,3.8911,3.8911,3.8911,3.8912,3.9026,3.9008,3.9002,3.8984,3.8977,3.8968,3.8951,3.895,3.8933,3.8915,3.892,3.8896,3.8886,3.8864,3.8857,3.8838,3.8848,3.8838,3.8835,3.8832,3.8829,3.8903,3.8834,3.8835,3.8835,3.8835,3.8835,0,3.8953,3.8951,3.8934,3.892,3.8906,3.892,3.8909,3.8896,3.8876,3.8867,3.8852,3.8827,3.8808,3.8805,3.8786,3.8772,3.8776,3.8766,3.8767,3.8766,3.8821,3.8829,3.8763,3.8763,3.8763,3.8763,3.8763,3.8763,3.8914,3.8884,3.8888,3.8855,3.8852,3.883,3.8823,3.8814,3.8808,3.8781,3.8766,3.8764,3.8757,3.8739,3.8722,3.8721,3.8714,3.8702,3.8704,3.8755,3.8762,3.8769,3.8776,3.8701,3.8701,3.865,3.865,3.8649]}]]